Douglas, WY

6:12 PM MDT on August 26, 2016 (GMT -0600)
Converse County

Weather History for KDGW - March, 2012

Change the Weather History Date:

Thursday, March 29, 2012

  Actual Average Record
Temperature  
Mean Temperature 52 °F 39 °F  
Max Temperature 66 °F 53 °F 67 °F (2013)
Min Temperature 37 °F 26 °F 8 °F (2003)
Degree Days  
Heating Degree Days 13 26  
Month to date heating degree days 595 866  
Since 1 July heating degree days 5760 6266  
Cooling Degree Days 0 0  
Month to date cooling degree days 0 0  
Year to date cooling degree days 0 0  
Growing Degree Days 2 (Base 50)    
Moisture  
Dew Point 25 °F    
Average Humidity 42    
Maximum Humidity 70    
Minimum Humidity 13    
Precipitation  
Precipitation 0.00 in 0.04 in 0.21 in (1991)
Month to date precipitation T 0.79  
Year to date precipitation 0.71 1.58  
Sea Level Pressure  
Sea Level Pressure 29.80 in    
Wind  
Wind Speed 12 mph (WNW)    
Max Wind Speed 28 mph    
Max Gust Speed 37 mph    
Visibility 10 miles    
Events      
T = Trace of Precipitation, MM = Missing Value Source: NWS Daily Summary

Daily Weather History Graph

Daily Weather History Graph

Search for Another Location

Airport or City:

Trip Planner

Search our weather history database for the weather conditions in past years. The results will help you decide how hot, cold, wet, or windy it might be!

Date:

Astronomy

Mar. 29, 2012 Rise Set
Actual Time 6:47 AM MDT 7:24 PM MDT
Civil Twilight 6:19 AM MDT 7:53 PM MDT
Nautical Twilight 5:45 AM MDT 8:27 PM MDT
Astronomical Twilight 5:11 AM MDT 9:02 PM MDT
Moon 10:52 AM MDT (3/29) 1:25 AM MDT (3/29)
Length of Visible Light 13h 33m
Length of Day
12h 36m
Waxing Crescent, 40% of the Moon is Illuminated
Mar 29
Waxing Crescent
Mar 30
First Quarter
Apr 6
Full
Apr 13
Last Quarter
Apr 21
New

Hourly Weather History & Observations

Time (MDT) Temp. Windchill Dew Point Humidity Pressure Visibility Wind Dir Wind Speed Gust Speed Precip Events Conditions
12:53 AM 51.1 °F - 25.0 °F 36% 29.74 in 10.0 mi NW 11.5 mph - N/A   Clear
1:53 AM 45.0 °F 40.6 °F 25.0 °F 46% 29.76 in 10.0 mi NW 8.1 mph - N/A   Clear
2:53 AM 44.1 °F 38.1 °F 25.0 °F 47% 29.77 in 10.0 mi WNW 11.5 mph - N/A   Clear
3:53 AM 39.9 °F 35.1 °F 26.1 °F 58% 29.81 in 10.0 mi NW 6.9 mph - N/A   Clear
4:53 AM 43.0 °F 38.2 °F 27.0 °F 53% 29.80 in 10.0 mi NW 8.1 mph - N/A   Overcast
5:53 AM 43.0 °F 36.4 °F 30.9 °F 62% 29.81 in 10.0 mi WNW 12.7 mph - N/A   Scattered Clouds
6:53 AM 41.0 °F 38.0 °F 32.0 °F 70% 29.87 in 10.0 mi NW 4.6 mph - N/A   Mostly Cloudy
7:53 AM 45.0 °F 42.6 °F 33.1 °F 63% 29.87 in 10.0 mi WNW 4.6 mph - N/A   Mostly Cloudy
8:53 AM 48.9 °F - 32.0 °F 52% 29.86 in 10.0 mi WNW 10.4 mph - N/A   Clear
9:53 AM 52.0 °F - 30.9 °F 45% 29.88 in 10.0 mi WNW 8.1 mph - N/A   Clear
10:53 AM 55.0 °F - 30.9 °F 40% 29.88 in 10.0 mi WSW 10.4 mph 18.4 mph N/A   Clear
11:53 AM 55.0 °F - 28.0 °F 35% 29.85 in 10.0 mi WNW 15.0 mph 27.6 mph N/A   Mostly Cloudy
12:53 PM 57.9 °F - 26.1 °F 30% 29.82 in 10.0 mi West 8.1 mph 19.6 mph N/A   Clear
1:53 PM 62.1 °F - 21.9 °F 21% 29.81 in 10.0 mi WSW 9.2 mph - N/A   Clear
2:53 PM 63.0 °F - 18.0 °F 18% 29.78 in 10.0 mi WNW 15.0 mph - N/A   Clear
3:53 PM 64.9 °F - 14.0 °F 14% 29.76 in 10.0 mi West 15.0 mph 25.3 mph N/A   Clear
4:53 PM 64.9 °F - 16.0 °F 15% 29.74 in 10.0 mi West 13.8 mph 25.3 mph N/A   Clear
5:53 PM 63.0 °F - 18.0 °F 18% 29.74 in 10.0 mi West 18.4 mph 36.8 mph N/A   Clear
6:53 PM 57.9 °F - 21.9 °F 25% 29.78 in 10.0 mi West 19.6 mph 27.6 mph N/A   Clear
7:53 PM 55.9 °F - 21.9 °F 27% 29.78 in 10.0 mi West 15.0 mph - N/A   Clear
8:53 PM 54.0 °F - 23.0 °F 30% 29.78 in 10.0 mi West 5.8 mph - N/A   Scattered Clouds
9:53 PM 55.0 °F - 24.1 °F 30% 29.77 in 10.0 mi West 17.3 mph - N/A   Mostly Cloudy
10:53 PM 53.1 °F - 28.9 °F 40% 29.75 in 10.0 mi WSW 23.0 mph 27.6 mph N/A   Mostly Cloudy
11:53 PM 51.1 °F - 27.0 °F 39% 29.76 in 10.0 mi WSW 10.4 mph - N/A   Scattered Clouds